Find Starlink 34844

NORAD ID: 66486 Int'l Des: 2025-263 Owner: SPXS Country: US Constellation: starlink operational
LEOCIRCULAR

現在のビュー

3D地球を読み込み中...

Starlink 34844について

説明を読み込み中...

次回通過

Passes for default location (London). Set your location on the main map for personalized predictions.

高度履歴

Loading altitude history...

軌道要素

1 66486U 25263B 26146.05003244 .00013889 00000-0 51316-3 0 9993
2 66486 43.0048 273.5046 0000895 300.0601 60.0162 15.27588532 30688
Epoch: May 26, 2026 • Age: 11 hours

現在のステータス

高度 486.7 km
速度 7.63 km/s
衛星直下点 43.09°N, 68.11°W
打ち上げ日 Nov 15, 2025
運用期間 0.5 years
タイプ internet

技術仕様

分類 Payload
質量 575.00 kg
乾燥質量 530.00 kg
総質量 575.00 kg
長さ 0.30 m
直径 4.10 m
スパン 29.00 m
形状 Box + pan
製造者 SPXS
バスタイプ Starlink V2MO
フェーズステータス In Orbit
所有者/国 SPXS/US

Most Searched